sat.trackr.live / text

‹ back to catalog

SES-8

NORAD 39460 · 2013-071A

PAYLOAD ACTIVE UNKNOWN

§ Identity

Operator
Country
SES
Launch date
2013-12-03
Launch site
AFETR
Launch vehicle
Mass (kg)
RCS (m²)
53.33

Purposes: comms

External: N2YO · Heavens-Above · Gunter

§ Orbital elements

Epoch: 2026-05-25T02:29:00.063744Z

Period
1,436.10 min
Inclination
0.0187°
Eccentricity
0.0002655
Mean motion
1.00271666 rev/d
Perigee alt
35,775.4 km
Apogee alt
35,797.8 km
Semi-major
42,164.8 km
B*
0.0000e+0
RAAN
302.2226°
Arg perigee
127.0672°
Mean anomaly
305.6645°
Rev number
4,419

§ Raw data

SES-81 39460U 13071A   26145.10347296 -.00000272  00000+0  00000+0 0  99942 39460   0.0187 302.2226 0002655 127.0672 305.6645  1.00271666 44196

JSON: /api/v1/satellites/39460 · /tle

For live sub-satellite position, see the globe view (requires WebGL).

§ Visibility from observer

Set your observer location to see the next 7 days of passes ≥ 10°. The values pass through the URL so the page stays shareable.

No JS? Fill the form by hand. The geolocation button needs JavaScript.